Flag for Sweden Weather past 2 weeks in Stockholm, Sweden

Now
73 °F

Sunny.


Feels Like: 75 °F
Forecast: 65 / 82 °F
Wind: 3 mph from North

Location: Stockholm Bromma Airport

Current Time: Jul 28, 2014 at 9:39:21 PM

Latest Report: Jul 28, 2014 at 9:20 PM


Visibility: 10 mi

Pressure: 29.89 "Hg

Humidity: 74%

Dew point: 64 °F

Location of StockholmLocation

Historic Weather in Stockholm — Graph

°F

Stockholm temperature yesterday

Maximum temperature yesterday: 81 °F (at 10:50 AM)
Minimum temperature yesterday: 63 °F (at 1:20 PM)
Average temperature yesterday: 72 °F

Past Weeks' High & Low Weather Summary

 TemperatureHumidityPressure
High88 °F (Jul 24, 1:50 PM)100% (Jul 15, 3:20 AM)30.30 "Hg (Jul 15, 3:20 AM)
Low54 °F (Jul 18, 4:20 AM)23% (Jul 23, 6:50 PM)29.71 "Hg (Jul 13, 8:20 PM)
Average70 °F68%30.05 "Hg
* Reported Jul 13 8:20 PM — Jul 28 8:20 PM, Stockholm, Weather by CustomWeather, © 2014

Note: Actual official high and low records may vary slightly from our data, if they occured in-between our weather recording intervals... More about our weather records

Advertising

Stockholm weather history for previous 24 hours

 ConditionsComfort  
Time TempWeatherWind HumidityBarometerVisibility
8:20 PM
Jul 28
77 °FPassing clouds.3 mph65%29.86 "HgN/A
7:50 PM77 °FSunny.7 mph61%29.86 "Hg10 mi
7:20 PM79 °FPassing clouds.3 mph58%29.86 "HgN/A
6:50 PM79 °FPassing clouds.6 mph58%29.86 "HgN/A
6:20 PM77 °FPassing clouds.5 mph57%29.86 "HgN/A
5:50 PM77 °FPassing clouds.7 mph61%29.86 "HgN/A
5:20 PM77 °FPassing clouds.6 mph61%29.89 "HgN/A
4:50 PM79 °FSunny.10 mph58%29.89 "Hg10 mi
4:20 PM81 °FSunny.9 mph51%29.86 "Hg10 mi
3:50 PM82 °FPassing clouds.8 mph48%29.89 "HgN/A
3:20 PM82 °FPassing clouds.9 mph45%29.89 "HgN/A
2:50 PM82 °FPassing clouds.8 mph48%29.89 "HgN/A
2:20 PM82 °FPassing clouds.9 mph48%29.92 "HgN/A
1:50 PM82 °FPassing clouds.8 mph51%29.92 "HgN/A
1:20 PM81 °FPassing clouds.5 mph54%29.92 "HgN/A
12:50 PM81 °FPassing clouds.6 mph54%29.92 "HgN/A
12:20 PM79 °FPassing clouds.8 mph54%29.95 "HgN/A
11:50 AM77 °FScattered clouds.12 mph69%29.95 "HgN/A
11:20 AM77 °FLight rain. Scattered clouds.9 mph61%29.95 "HgN/A
10:50 AM77 °FBroken clouds.6 mph65%29.95 "HgN/A
10:20 AM77 °FPassing clouds.5 mph65%29.95 "HgN/A
9:50 AM77 °FSunny.2 mph65%29.95 "Hg10 mi
9:20 AM75 °FSunny.3 mph69%29.95 "Hg10 mi
8:50 AM75 °FSunny.2 mph69%29.95 "Hg10 mi
8:20 AM73 °FSunny.No wind78%29.95 "Hg10 mi
7:50 AM72 °FPassing clouds.3 mph83%29.95 "HgN/A
7:20 AM70 °FSunny.1 mph88%29.95 "Hg10 mi
6:50 AM68 °FSunny.No wind88%29.95 "Hg10 mi
6:20 AM64 °FSunny.No wind100%29.98 "Hg10 mi
5:50 AM63 °FPassing clouds.2 mph100%29.98 "HgN/A
5:20 AM63 °FFog.No wind100%29.98 "Hg4 mi
4:20 AM63 °FFog.No wind100%29.98 "Hg3 mi
3:50 AM63 °FFog.No wind100%29.98 "Hg5 mi
3:20 AM63 °FFog.No wind100%29.98 "Hg5 mi
2:50 AM63 °FFog.No wind94%29.98 "Hg3 mi
2:20 AM63 °FFog.No wind94%29.98 "Hg3 mi
1:50 AM63 °FFog.No wind100%29.98 "Hg5 mi
1:20 AM63 °FMild.No wind100%29.98 "Hg4 mi
12:50 AM64 °FMild.2 mph94%29.98 "HgN/A
12:20 AM64 °FPassing clouds.3 mph94%30.01 "HgN/A
11:50 PM
Jul 27
64 °FPassing clouds.3 mph94%30.01 "HgN/A
11:20 PM66 °FMild.2 mph88%29.98 "HgN/A
10:50 PM68 °FPassing clouds.3 mph83%29.98 "HgN/A
10:20 PM68 °FPassing clouds.3 mph78%30.01 "HgN/A
9:50 PM72 °FSunny.5 mph65%29.98 "Hg10 mi
9:20 PM72 °FSunny.5 mph65%29.98 "Hg10 mi
Weather by CustomWeather, © 2014

See weather overviewHow to use our weather pages